TimeCST,TemperatureF,Dew PointF,Humidity,Sea Level PressureIn,VisibilityMPH,Wind Direction,Wind SpeedMPH,Gust SpeedMPH,PrecipitationIn,Events,Conditions,WindDirDegrees,DateUTC
12:15 AM,28.4,23.0,80,30.23,10.0,Calm,Calm,-,N/A,,Clear,0,2013-03-07 06:15:00
12:35 AM,28.4,23.0,80,30.23,10.0,Calm,Calm,-,N/A,,Clear,0,2013-03-07 06:35:00
12:55 AM,28.4,23.0,80,30.25,10.0,Calm,Calm,-,N/A,,Clear,0,2013-03-07 06:55:00
1:15 AM,28.4,23.0,80,30.25,10.0,Calm,Calm,-,N/A,,Clear,0,2013-03-07 07:15:00
1:35 AM,28.4,23.0,80,30.25,10.0,Calm,Calm,-,N/A,,Clear,0,2013-03-07 07:35:00
1:55 AM,28.4,23.0,80,30.25,10.0,Calm,Calm,-,N/A,,Scattered Clouds,0,2013-03-07 07:55:00
2:15 AM,26.6,23.0,86,30.24,10.0,Calm,Calm,-,N/A,,Scattered Clouds,0,2013-03-07 08:15:00
2:35 AM,26.6,23.0,86,30.25,10.0,Calm,Calm,-,N/A,,Mostly Cloudy,0,2013-03-07 08:35:00
2:55 AM,26.6,23.0,86,30.24,10.0,Calm,Calm,-,N/A,,Mostly Cloudy,0,2013-03-07 08:55:00
3:15 AM,26.6,23.0,86,30.24,10.0,Calm,Calm,-,N/A,,Mostly Cloudy,0,2013-03-07 09:15:00
3:35 AM,26.6,23.0,86,30.25,10.0,Calm,Calm,-,N/A,,Mostly Cloudy,0,2013-03-07 09:35:00
3:55 AM,26.6,23.0,86,30.25,10.0,Calm,Calm,-,N/A,,Overcast,0,2013-03-07 09:55:00
4:15 AM,26.6,23.0,86,30.24,7.0,Calm,Calm,-,N/A,,Scattered Clouds,0,2013-03-07 10:15:00
4:55 AM,28.4,23.0,80,30.27,10.0,Calm,Calm,-,N/A,,Clear,0,2013-03-07 10:55:00
5:15 AM,28.4,23.0,80,30.26,10.0,Calm,Calm,-,N/A,,Clear,0,2013-03-07 11:15:00
5:35 AM,26.6,23.0,86,30.27,10.0,Calm,Calm,-,N/A,,Clear,0,2013-03-07 11:35:00
6:15 AM,28.4,23.0,80,30.29,10.0,Calm,Calm,-,N/A,,Clear,0,2013-03-07 12:15:00
6:35 AM,28.4,24.8,86,30.28,10.0,Calm,Calm,-,N/A,,Clear,0,2013-03-07 12:35:00
6:55 AM,30.2,26.6,86,30.28,10.0,Calm,Calm,-,N/A,,Clear,0,2013-03-07 12:55:00
7:15 AM,32.0,26.6,80,30.30,10.0,Calm,Calm,-,N/A,,Clear,0,2013-03-07 13:15:00
7:35 AM,32.0,26.6,80,30.30,10.0,NNE,8.1,-,N/A,,Clear,30,2013-03-07 13:35:00
7:55 AM,33.8,26.6,75,30.30,10.0,NNE,9.2,-,N/A,,Clear,20,2013-03-07 13:55:00
8:15 AM,33.8,26.6,75,30.30,10.0,North,8.1,-,N/A,,Clear,360,2013-03-07 14:15:00
8:35 AM,33.8,26.6,75,30.30,10.0,North,12.7,17.3,N/A,,Clear,10,2013-03-07 14:35:00
8:55 AM,37.4,26.6,65,30.30,10.0,NNE,9.2,-,N/A,,Clear,30,2013-03-07 14:55:00
9:15 AM,37.4,26.6,65,30.31,10.0,NNE,9.2,-,N/A,,Clear,30,2013-03-07 15:15:00
9:35 AM,37.4,26.6,65,30.30,10.0,ENE,4.6,-,N/A,,Clear,60,2013-03-07 15:35:00
9:55 AM,41.0,26.6,57,30.30,10.0,East,5.8,-,N/A,,Clear,100,2013-03-07 15:55:00
10:15 AM,41.0,26.6,57,30.29,10.0,NE,3.5,-,N/A,,Clear,50,2013-03-07 16:15:00
10:35 AM,42.8,26.6,53,30.29,10.0,Calm,Calm,-,N/A,,Clear,0,2013-03-07 16:35:00
10:55 AM,42.8,24.8,49,30.29,10.0,Calm,Calm,-,N/A,,Clear,0,2013-03-07 16:55:00
11:15 AM,44.6,26.6,49,30.28,10.0,Calm,Calm,-,N/A,,Clear,0,2013-03-07 17:15:00
11:35 AM,46.4,26.6,46,30.28,10.0,ENE,3.5,-,N/A,,Clear,70,2013-03-07 17:35:00
11:55 AM,46.4,26.6,46,30.27,10.0,Calm,Calm,-,N/A,,Clear,0,2013-03-07 17:55:00
12:15 PM,48.2,26.6,43,30.26,10.0,North,3.5,-,N/A,,Clear,360,2013-03-07 18:15:00
12:35 PM,48.2,24.8,40,30.26,10.0,NNW,3.5,-,N/A,,Clear,340,2013-03-07 18:35:00
12:55 PM,50.0,26.6,40,30.25,10.0,NE,4.6,-,N/A,,Clear,50,2013-03-07 18:55:00
1:15 PM,50.0,24.8,37,30.24,10.0,North,5.8,-,N/A,,Clear,350,2013-03-07 19:15:00
1:35 PM,51.8,24.8,35,30.23,10.0,NE,6.9,-,N/A,,Clear,40,2013-03-07 19:35:00
1:55 PM,51.8,23.0,33,30.22,10.0,Calm,Calm,-,N/A,,Clear,0,2013-03-07 19:55:00
2:15 PM,51.8,23.0,33,30.22,10.0,North,10.4,-,N/A,,Clear,360,2013-03-07 20:15:00
2:35 PM,53.6,24.8,33,30.23,10.0,North,6.9,-,N/A,,Clear,10,2013-03-07 20:35:00
2:55 PM,53.6,26.6,35,30.22,10.0,Calm,Calm,-,N/A,,Clear,0,2013-03-07 20:55:00
3:15 PM,51.8,26.6,38,30.22,10.0,NNW,5.8,-,N/A,,Clear,340,2013-03-07 21:15:00
3:35 PM,51.8,23.0,33,30.23,10.0,NW,10.4,-,N/A,,Clear,320,2013-03-07 21:35:00
3:55 PM,51.8,23.0,33,30.23,10.0,NNW,5.8,-,N/A,,Clear,330,2013-03-07 21:55:00
4:15 PM,51.8,24.8,35,30.23,10.0,NW,8.1,-,N/A,,Clear,320,2013-03-07 22:15:00
4:35 PM,51.8,26.6,38,30.23,10.0,NNW,6.9,-,N/A,,Clear,340,2013-03-07 22:35:00
4:55 PM,51.8,26.6,38,30.23,10.0,NW,5.8,-,N/A,,Clear,310,2013-03-07 22:55:00
5:15 PM,51.8,28.4,41,30.24,10.0,North,4.6,-,N/A,,Clear,360,2013-03-07 23:15:00
5:35 PM,50.0,28.4,43,30.24,10.0,North,3.5,-,N/A,,Clear,10,2013-03-07 23:35:00
5:55 PM,48.2,28.4,46,30.25,10.0,Calm,Calm,-,N/A,,Clear,0,2013-03-07 23:55:00
7:35 PM,42.8,30.2,61,30.27,10.0,Calm,Calm,-,N/A,,Clear,0,2013-03-08 01:35:00
7:55 PM,41.0,30.2,65,30.27,10.0,Calm,Calm,-,N/A,,Clear,0,2013-03-08 01:55:00
8:15 PM,41.0,30.2,65,30.27,10.0,Calm,Calm,-,N/A,,Clear,0,2013-03-08 02:15:00
8:35 PM,39.2,30.2,70,30.27,10.0,Calm,Calm,-,N/A,,Clear,0,2013-03-08 02:35:00
8:55 PM,35.6,30.2,81,30.28,10.0,Calm,Calm,-,N/A,,Clear,0,2013-03-08 02:55:00
9:15 PM,37.4,30.2,75,30.28,10.0,Calm,Calm,-,N/A,,Clear,0,2013-03-08 03:15:00
9:35 PM,37.4,30.2,75,30.27,10.0,Calm,Calm,-,N/A,,Clear,0,2013-03-08 03:35:00
9:55 PM,35.6,30.2,81,30.27,10.0,Calm,Calm,-,N/A,,Clear,0,2013-03-08 03:55:00
10:15 PM,35.6,28.4,75,30.26,10.0,Calm,Calm,-,N/A,,Clear,0,2013-03-08 04:15:00
10:35 PM,35.6,28.4,75,30.27,10.0,Calm,Calm,-,N/A,,Clear,0,2013-03-08 04:35:00
11:15 PM,33.8,28.4,81,30.27,10.0,Calm,Calm,-,N/A,,Clear,0,2013-03-08 05:15:00
11:35 PM,33.8,28.4,81,30.27,10.0,Calm,Calm,-,N/A,,Clear,0,2013-03-08 05:35:00
11:55 PM,33.8,28.4,81,30.28,10.0,Calm,Calm,-,N/A,,Clear,0,2013-03-08 05:55:00